TimeHST,TemperatureF,Dew PointF,Humidity,Sea Level PressureIn,VisibilityMPH,Wind Direction,Wind SpeedMPH,Gust SpeedMPH,PrecipitationIn,Events,Conditions,WindDirDegrees,DateUTC
12:56 AM,73.9,62.1,66,29.98,10.0,ESE,3.5,-,N/A,,Mostly Cloudy,120,2013-07-03 10:56:00
1:56 AM,72.0,62.1,71,29.97,10.0,ENE,4.6,-,N/A,,Clear,60,2013-07-03 11:56:00
2:56 AM,71.1,61.0,70,29.95,10.0,ENE,4.6,-,N/A,,Clear,70,2013-07-03 12:56:00
3:56 AM,71.1,61.0,70,29.96,10.0,ENE,4.6,-,N/A,,Clear,60,2013-07-03 13:56:00
4:56 AM,71.1,61.0,70,29.96,10.0,East,3.5,-,N/A,,Scattered Clouds,80,2013-07-03 14:56:00
5:56 AM,72.0,64.0,76,29.97,10.0,Calm,Calm,-,N/A,,Mostly Cloudy,0,2013-07-03 15:56:00
6:56 AM,73.9,64.0,71,29.99,10.0,NNE,3.5,-,N/A,,Overcast,30,2013-07-03 16:56:00
7:56 AM,79.0,64.9,62,30.00,10.0,North,3.5,-,N/A,,Partly Cloudy,10,2013-07-03 17:56:00
8:56 AM,79.0,66.0,64,30.01,10.0,WSW,5.8,-,N/A,,Clear,240,2013-07-03 18:56:00
9:56 AM,80.1,66.0,62,30.00,10.0,WNW,6.9,-,N/A,,Clear,290,2013-07-03 19:56:00
10:56 AM,81.0,66.9,62,30.00,10.0,NW,8.1,-,N/A,,Clear,310,2013-07-03 20:56:00
11:56 AM,82.9,66.0,56,29.99,10.0,NW,9.2,-,N/A,,Clear,310,2013-07-03 21:56:00
12:56 PM,82.9,66.0,56,29.98,10.0,WNW,9.2,-,N/A,,Clear,290,2013-07-03 22:56:00
1:56 PM,82.9,68.0,60,29.97,10.0,West,9.2,-,N/A,,Clear,280,2013-07-03 23:56:00
2:56 PM,82.9,68.0,60,29.96,10.0,NW,10.4,-,N/A,,Clear,310,2013-07-04 00:56:00
3:56 PM,82.9,68.0,60,29.95,10.0,WNW,9.2,-,N/A,,Mostly Cloudy,300,2013-07-04 01:56:00
4:56 PM,81.0,66.0,60,29.94,10.0,West,4.6,-,N/A,,Overcast,280,2013-07-04 02:56:00
5:56 PM,78.1,70.0,76,29.95,10.0,SSE,10.4,-,N/A,,Overcast,150,2013-07-04 03:56:00
6:56 PM,78.1,68.0,71,29.97,10.0,ESE,5.8,-,N/A,,Overcast,120,2013-07-04 04:56:00
7:56 PM,78.1,66.9,68,29.98,10.0,Calm,Calm,-,N/A,,Partly Cloudy,0,2013-07-04 05:56:00
8:56 PM,77.0,66.9,71,29.99,10.0,Calm,Calm,-,N/A,,Clear,0,2013-07-04 06:56:00
9:56 PM,78.1,68.0,71,30.00,10.0,West,3.5,-,N/A,,Partly Cloudy,270,2013-07-04 07:56:00
10:56 PM,75.0,66.9,76,30.01,10.0,SE,4.6,-,N/A,,Clear,130,2013-07-04 08:56:00
11:56 PM,73.0,64.9,76,30.01,10.0,Calm,Calm,-,N/A,,Clear,0,2013-07-04 09:56:00